Indianapolis, IN

7:57 PM EST on November 18, 2019 (GMT -0500)
Indianapolis International

Weather History for KIND - September, 2019

Change the Weather History Date:

Saturday, September 28, 2019

  Actual Average Record
Temperature  
Mean Temperature 79 °F 62 °F  
Max Temperature 88 °F 72 °F 91 °F (1939)
Min Temperature 69 °F 51 °F 33 °F (1942)
Degree Days  
Heating Degree Days 0 5  
Month to date heating degree days 0 58  
Since 1 July heating degree days 0 62  
Cooling Degree Days 14 2  
Month to date cooling degree days 240 125  
Year to date cooling degree days 1279 1046  
Growing Degree Days 28 (Base 50)    
Moisture  
Dew Point 63 °F    
Average Humidity 64    
Maximum Humidity 84    
Minimum Humidity 43    
Precipitation  
Precipitation T in 0.11 in 1.41 in (1936)
Month to date precipitation 0.40 2.91  
Year to date precipitation 36.95 32.24  
Snow  
Snow 0.00 in 0.00 in T in (2016)
Month to date snowfall 0.0 0.0  
Since 1 July snowfall 0.0 0.0  
Since 1 September snowfall 0.0 0.0  
Snow Depth 0.00 in    
Sea Level Pressure  
Sea Level Pressure 30.00 in    
Wind  
Wind Speed 8 mph (WSW)    
Max Wind Speed 15 mph    
Max Gust Speed 19 mph    
Visibility 10 miles    
Events      
T = Trace of Precipitation, MM = Missing Value Source: NWS Daily Summary

Daily Weather History Graph

Daily Weather History Graph

Search for Another Location

Airport or City:

Astronomy

Sep. 28, 2019 Rise Set
Actual Time 7:38 AM EDT 7:32 PM EDT
Civil Twilight 7:11 AM EDT 7:59 PM EDT
Nautical Twilight 6:40 AM EDT 8:30 PM EDT
Astronomical Twilight 6:08 AM EDT 9:02 PM EDT
Moon 7:14 AM EDT (9/28) 7:58 PM EDT (9/28)
Length of Visible Light 12h 48m
Length of Day
11h 54m
Waning Crescent, 0% of the Moon is Illuminated
Sep 28
Waning Crescent
Sep 28
New
Oct 5
First Quarter
Oct 13
Full
Oct 21
Last Quarter

Hourly Weather History & Observations

Time (EDT) Temp. Heat Index Dew Point Humidity Pressure Visibility Wind Dir Wind Speed Gust Speed Precip Events Conditions
12:54 AM 75.0 °F - 63.0 °F 66% 29.84 in 10.0 mi South 11.5 mph - N/A   Partly Cloudy
1:54 AM 71.1 °F - 63.0 °F 75% 29.87 in 10.0 mi WNW 5.8 mph - N/A   Partly Cloudy
2:54 AM 75.0 °F - 64.0 °F 69% 29.90 in 10.0 mi Calm Calm - N/A   Overcast
3:54 AM 73.0 °F - 64.9 °F 76% 29.91 in 10.0 mi NNW 3.5 mph - N/A   Overcast
4:54 AM 73.0 °F - 64.9 °F 76% 29.91 in 10.0 mi WSW 8.1 mph - N/A   Overcast
5:54 AM 71.1 °F - 64.0 °F 78% 29.93 in 10.0 mi NW 5.8 mph - N/A   Overcast
6:54 AM 70.0 °F - 64.0 °F 81% 29.95 in 10.0 mi South 3.5 mph - N/A   Mostly Cloudy
7:54 AM 69.1 °F - 64.0 °F 84% 29.96 in 10.0 mi SSW 4.6 mph - N/A   Mostly Cloudy
8:54 AM 70.0 °F - 64.0 °F 81% 30.01 in 10.0 mi West 5.8 mph - N/A   Mostly Cloudy
9:54 AM 72.0 °F - 64.9 °F 78% 30.02 in 10.0 mi WNW 3.5 mph - N/A   Mostly Cloudy
10:54 AM 73.9 °F - 64.9 °F 73% 30.02 in 10.0 mi SSE 4.6 mph - N/A   Mostly Cloudy
11:54 AM 80.1 °F 81.9 °F 64.9 °F 60% 30.00 in 10.0 mi SSE 10.4 mph - N/A   Mostly Cloudy
12:54 PM 84.9 °F 85.4 °F 62.1 °F 46% 30.01 in 10.0 mi SSW 12.7 mph - N/A   Mostly Cloudy
1:54 PM 86.0 °F 86.3 °F 62.1 °F 44% 30.02 in 10.0 mi SSW 6.9 mph - N/A   Mostly Cloudy
2:54 PM 88.0 °F 88.7 °F 63.0 °F 43% 30.02 in 10.0 mi SW 12.7 mph - N/A   Mostly Cloudy
3:54 PM 84.9 °F 86.6 °F 64.9 °F 51% 30.03 in 10.0 mi West 9.2 mph - N/A   Mostly Cloudy
4:54 PM 84.0 °F 85.4 °F 64.0 °F 51% 30.04 in 10.0 mi West 6.9 mph - 0.00 in   Mostly Cloudy
5:54 PM 82.0 °F 83.0 °F 62.1 °F 51% 30.05 in 10.0 mi NNE 13.8 mph - N/A   Mostly Cloudy
6:54 PM 81.0 °F 81.9 °F 62.1 °F 52% 30.06 in 10.0 mi NE 11.5 mph - N/A   Mostly Cloudy
7:54 PM 78.1 °F - 63.0 °F 60% 30.08 in 10.0 mi NE 12.7 mph - N/A   Mostly Cloudy
8:54 PM 75.9 °F - 62.1 °F 62% 30.09 in 10.0 mi ENE 11.5 mph - N/A   Scattered Clouds
9:54 PM 75.0 °F - 62.1 °F 64% 30.11 in 10.0 mi NE 6.9 mph - N/A   Scattered Clouds
10:54 PM 73.9 °F - 62.1 °F 66% 30.13 in 10.0 mi ENE 9.2 mph - N/A   Partly Cloudy
11:54 PM 73.0 °F - 63.0 °F 71% 30.15 in 10.0 mi ENE 13.8 mph - N/A   Partly Cloudy